Missoula, MT

11:11 AM MDT on June 29, 2017 (GMT -0600)
Missoula International

Weather History for KMSO - February, 2013

Change the Weather History Date:

Wednesday, February 6, 2013

  Actual Average Record
Temperature  
Mean Temperature 34 °F 28 °F  
Max Temperature 41 °F 36 °F 58 °F (2015)
Min Temperature 27 °F 20 °F -23 °F (2014)
Degree Days  
Heating Degree Days 31 37  
Month to date heating degree days 183 222  
Since 1 July heating degree days 4290 4611  
Cooling Degree Days 0 0  
Month to date cooling degree days 0 0  
Year to date cooling degree days 0 0  
Moisture  
Dew Point 29 °F    
Average Humidity 78    
Maximum Humidity 96    
Minimum Humidity 59    
Precipitation  
Precipitation 0.02 in 0.03 in 0.49 in (1938)
Month to date precipitation 0.05 0.15  
Year to date precipitation 1.20 1.00  
Snow  
Snow 0.10 in - - ()
Month to date snowfall 0.1  
Year to date snowfall 11.5  
Since 1 July snowfall 32.6  
Snow Depth T in    
Sea Level Pressure  
Sea Level Pressure 30.04 in    
Wind  
Wind Speed 3 mph (ESE)    
Max Wind Speed 13 mph    
Max Gust Speed 16 mph    
Visibility 9 miles    
Events Snow    
T = Trace of Precipitation, MM = Missing Value Source: NWS Daily Summary

Daily Weather History Graph

Daily Weather History Graph

Search for Another Location

Airport or City:

Trip Planner

Search our weather history database for the weather conditions in past years. The results will help you decide how hot, cold, wet, or windy it might be!

Date:

Astronomy

Feb. 06, 2013 Rise Set
Actual Time 7:53 AM MST 5:47 PM MST
Civil Twilight 7:21 AM MST 6:19 PM MST
Nautical Twilight 6:45 AM MST 6:55 PM MST
Astronomical Twilight 6:10 AM MST 7:31 PM MST
Moon 4:49 AM MST (2/6) 2:03 PM MST (2/6)
Length of Visible Light 10h 57m
Length of Day
9h 53m
Waning Crescent, 16% of the Moon is Illuminated
Feb 6
Waning Crescent
Feb 10
New
Feb 17
First Quarter
Feb 25
Full
Mar 4
Last Quarter

Hourly Weather History & Observations

Time (MST) Temp. Windchill Dew Point Humidity Pressure Visibility Wind Dir Wind Speed Gust Speed Precip Events Conditions
12:53 AM 36.0 °F - 28.0 °F 73% 29.97 in 10.0 mi Calm Calm - N/A   Overcast
1:53 AM 37.0 °F 33.3 °F 28.0 °F 70% 29.98 in 10.0 mi SW 4.6 mph - N/A   Overcast
2:34 AM 35.6 °F 30.7 °F 28.4 °F 75% 29.93 in 5.0 mi NE 5.8 mph - 0.00 in Snow Light Snow
2:53 AM 36.0 °F 32.1 °F 28.9 °F 76% 29.98 in 10.0 mi NNE 4.6 mph - 0.00 in   Overcast
3:51 AM 35.6 °F - 30.2 °F 81% 29.93 in 6.0 mi Calm Calm - 0.00 in Snow Light Snow
3:53 AM 34.0 °F - 30.9 °F 89% 29.99 in 5.0 mi Calm Calm - 0.00 in Snow Light Snow
4:21 AM 33.8 °F 30.8 °F 30.2 °F 87% 29.92 in 10.0 mi NNE 3.5 mph - N/A   Mostly Cloudy
4:53 AM 30.2 °F 25.4 °F 28.4 °F 93% 29.93 in 10.0 mi South 4.6 mph - N/A   Scattered Clouds
5:32 AM 33.8 °F 30.8 °F 30.2 °F 87% 29.94 in 5.0 mi SE 3.5 mph - 0.00 in Snow Light Snow
5:37 AM 33.8 °F 28.6 °F 30.2 °F 87% 29.94 in 2.5 mi ESE 5.8 mph - 0.00 in Snow Light Snow
5:46 AM 33.8 °F 29.6 °F 30.2 °F 87% 29.94 in 7.0 mi SE 4.6 mph - 0.00 in Snow Light Snow
5:53 AM 33.1 °F 28.7 °F 30.0 °F 89% 30.00 in 9.0 mi East 4.6 mph - 0.00 in   Mostly Cloudy
6:05 AM 32.0 °F - 28.4 °F 87% 29.94 in 10.0 mi Calm Calm - N/A   Mostly Cloudy
6:53 AM 33.1 °F 28.7 °F 30.9 °F 92% 30.02 in 10.0 mi SW 4.6 mph - N/A   Mostly Cloudy
7:53 AM 32.0 °F - 30.0 °F 92% 30.04 in 10.0 mi Calm Calm - 0.00 in   Mostly Cloudy
8:53 AM 34.0 °F - 30.9 °F 89% 30.04 in 10.0 mi Calm Calm - N/A   Overcast
9:27 AM 32.0 °F 28.7 °F 30.2 °F 93% 29.99 in 10.0 mi West 3.5 mph - N/A   Mostly Cloudy
9:53 AM 34.0 °F 31.0 °F 32.0 °F 92% 30.05 in 10.0 mi ENE 3.5 mph - N/A   Mostly Cloudy
10:53 AM 36.0 °F 29.0 °F 30.9 °F 82% 30.07 in 10.0 mi SSE 9.2 mph - N/A   Overcast
11:33 AM 33.8 °F 30.8 °F 32.0 °F 93% 30.03 in 2.5 mi NNW 3.5 mph - 0.01 in Snow Light Snow
11:35 AM 33.8 °F 29.6 °F 32.0 °F 93% 30.03 in 5.0 mi North 4.6 mph - 0.01 in Snow Light Snow
11:53 AM 36.0 °F - 32.0 °F 86% 30.09 in 10.0 mi Calm Calm - 0.02 in   Overcast
12:53 PM 39.9 °F 36.7 °F 30.0 °F 68% 30.08 in 10.0 mi East 4.6 mph - 0.00 in   Overcast
1:53 PM 37.9 °F - 32.0 °F 79% 30.08 in 10.0 mi Calm Calm - N/A   Scattered Clouds
2:26 PM 41.0 °F 37.1 °F 28.4 °F 61% 30.02 in 10.0 mi West 5.8 mph - N/A   Overcast
2:53 PM 39.9 °F 36.7 °F 28.9 °F 65% 30.09 in 10.0 mi West 4.6 mph - N/A   Overcast
3:53 PM 39.9 °F 34.5 °F 26.1 °F 58% 30.10 in 10.0 mi WSW 8.1 mph - N/A   Partly Cloudy
4:53 PM 39.0 °F 32.8 °F 26.1 °F 60% 30.13 in 10.0 mi West 9.2 mph - N/A   Scattered Clouds
5:53 PM 37.9 °F 34.4 °F 25.0 °F 60% 30.14 in 10.0 mi WNW 4.6 mph - N/A   Overcast
6:53 PM 34.0 °F - 25.0 °F 70% 30.15 in 10.0 mi Calm Calm - N/A   Scattered Clouds
7:53 PM 32.0 °F - 25.0 °F 75% 30.15 in 10.0 mi Calm Calm - N/A   Partly Cloudy
8:53 PM 30.9 °F - 24.1 °F 76% 30.15 in 10.0 mi Calm Calm - N/A   Clear
9:53 PM 30.0 °F 26.5 °F 24.1 °F 79% 30.15 in 10.0 mi East 3.5 mph - N/A   Clear
10:53 PM 28.0 °F 24.2 °F 23.0 °F 81% 30.15 in 10.0 mi East 3.5 mph - N/A   Clear
11:53 PM 28.0 °F 21.7 °F 24.1 °F 85% 30.14 in 10.0 mi SSE 5.8 mph - N/A   Clear